When you browse on this site, cookies collect data to enhance your experience and personalize the content and advertising you see.
Visit our Privacy Policy to learn more. By continuing to use the site, you agree to this use of cookies and data.
  • In Österreich
  • Länderverzeichnis
  • Für 7 Tage
  • Wassertemperatur
  • Satellitenkarten
  • Wetterkarte
  • News
  • Widgets
  • user-avatar
    Anmelden

    Stündliche Wetter Przytoczna

    Heute, 13 Dezember, Donnerstag

    Zeit Temperatur Niederschläge Wind Luftdruck Luftfeuchtigkeit
    00:00 +1°C° 0 mm 1 m/S 764 mmHg 94%
    01:00 +1°C° 0 mm 1 m/S 764 mmHg 94%
    02:00 +1°C° 0 mm 1 m/S 764 mmHg 93%
    03:00 +1°C° 0 mm 1 m/S 763 mmHg 92%
    04:00 +2°C° 0 mm 1 m/S 763 mmHg 92%
    05:00 -1°C° 0 mm 2 m/S 763 mmHg 92%
    06:00 -1°C° 0 mm 2 m/S 763 mmHg 92%
    07:00 -1°C° 0 mm 2 m/S 763 mmHg 92%
    08:00 -1°C° 0 mm 2 m/S 763 mmHg 89%
    09:00 +1°C° 0 mm 2 m/S 763 mmHg 87%
    10:00 0°C° 0 mm 3 m/S 763 mmHg 85%
    11:00 0°C° 0 mm 3 m/S 763 mmHg 82%
    12:00 0°C° 0 mm 3 m/S 763 mmHg 79%
    13:00 0°C° 0 mm 3 m/S 763 mmHg 77%
    14:00 +1°C° 0 mm 2 m/S 763 mmHg 79%
    15:00 -1°C° 0 mm 2 m/S 763 mmHg 81%
    16:00 -1°C° 0 mm 2 m/S 762 mmHg 83%
    17:00 -2°C° 0 mm 2 m/S 762 mmHg 83%
    18:00 -2°C° 0 mm 2 m/S 763 mmHg 84%
    19:00 -2°C° 0 mm 2 m/S 763 mmHg 84%
    20:00 -2°C° 0 mm 2 m/S 763 mmHg 84%
    21:00 -2°C° 0 mm 2 m/S 763 mmHg 84%
    22:00 -3°C° 0 mm 2 m/S 763 mmHg 83%
    23:00 -3°C° 0 mm 2 m/S 763 mmHg 83%

    Morgen, 14 Dezember, Freitag

    Zeit Temperatur Niederschläge Wind Luftdruck Luftfeuchtigkeit
    00:00 -3°C° 0 mm 2 m/S 763 mmHg 82%
    01:00 -3°C° 0 mm 2 m/S 763 mmHg 82%
    02:00 -2°C° 0 mm 2 m/S 763 mmHg 82%
    03:00 -2°C° 0 mm 2 m/S 764 mmHg 82%
    04:00 -2°C° 0 mm 2 m/S 764 mmHg 82%
    05:00 -2°C° 0 mm 2 m/S 764 mmHg 82%
    06:00 -2°C° 0 mm 2 m/S 764 mmHg 82%
    07:00 -2°C° 0 mm 2 m/S 764 mmHg 82%
    08:00 -2°C° 0 mm 2 m/S 764 mmHg 79%
    09:00 -1°C° 0 mm 3 m/S 765 mmHg 76%
    10:00 -1°C° 0 mm 3 m/S 765 mmHg 73%
    11:00 -1°C° 0 mm 3 m/S 765 mmHg 70%
    12:00 0°C° 0 mm 3 m/S 765 mmHg 67%
    13:00 0°C° 0 mm 3 m/S 765 mmHg 63%
    14:00 -1°C° 0 mm 2 m/S 765 mmHg 66%
    15:00 -1°C° 0 mm 2 m/S 765 mmHg 69%
    16:00 -1°C° 0 mm 2 m/S 765 mmHg 72%
    17:00 -2°C° 0 mm 2 m/S 766 mmHg 73%
    18:00 -2°C° 0 mm 2 m/S 766 mmHg 75%
    19:00 -2°C° 0 mm 2 m/S 766 mmHg 77%
    20:00 -2°C° 0 mm 2 m/S 766 mmHg 78%
    21:00 -2°C° 0 mm 2 m/S 766 mmHg 79%
    22:00 -3°C° 0 mm 2 m/S 766 mmHg 81%
    23:00 -3°C° 0 mm 2 m/S 766 mmHg 82%

    übermorgen, 15 Dezember, Samstag

    Zeit Temperatur Niederschläge Wind Luftdruck Luftfeuchtigkeit
    00:00 -3°C° 0 mm 2 m/S 767 mmHg 83%
    01:00 -3°C° 0 mm 2 m/S 767 mmHg 84%
    02:00 -3°C° 0 mm 2 m/S 766 mmHg 85%
    03:00 -2°C° 0 mm 2 m/S 766 mmHg 86%
    04:00 -2°C° 0 mm 2 m/S 766 mmHg 87%
    05:00 -2°C° 0 mm 2 m/S 766 mmHg 87%
    06:00 -2°C° 0 mm 2 m/S 766 mmHg 88%
    07:00 -2°C° 0 mm 2 m/S 767 mmHg 89%
    08:00 -2°C° 0 mm 2 m/S 767 mmHg 87%
    09:00 -1°C° 0 mm 2 m/S 767 mmHg 86%
    10:00 -1°C° 0 mm 3 m/S 767 mmHg 84%
    11:00 -1°C° 0 mm 3 m/S 767 mmHg 82%
    12:00 0°C° 0 mm 3 m/S 766 mmHg 80%
    13:00 0°C° 0 mm 3 m/S 766 mmHg 77%
    14:00 +1°C° 0 mm 2 m/S 766 mmHg 80%
    15:00 -1°C° 0 mm 2 m/S 766 mmHg 83%
    16:00 -1°C° 0 mm 2 m/S 766 mmHg 85%
    17:00 -2°C° 0 mm 2 m/S 766 mmHg 86%
    18:00 -2°C° 0 mm 3 m/S 766 mmHg 86%
    19:00 -2°C° 0 mm 3 m/S 766 mmHg 86%
    20:00 -2°C° 0 mm 3 m/S 766 mmHg 85%
    21:00 -2°C° 0 mm 3 m/S 765 mmHg 85%
    22:00 -4°C° 0 mm 3 m/S 765 mmHg 84%
    23:00 -4°C° 0 mm 3 m/S 765 mmHg 84%

    16 Dezember, Sonntag

    Zeit Temperatur Niederschläge Wind Luftdruck Luftfeuchtigkeit
    00:00 -4°C° 0 mm 3 m/S 764 mmHg 84%
    01:00 -4°C° 0 mm 3 m/S 764 mmHg 83%
    02:00 -4°C° 0 mm 3 m/S 763 mmHg 85%
    03:00 -4°C° 0 mm 3 m/S 763 mmHg 86%
    04:00 -4°C° 0 mm 3 m/S 763 mmHg 87%
    05:00 -4°C° 0 mm 3 m/S 762 mmHg 86%
    06:00 -4°C° 0 mm 3 m/S 762 mmHg 86%
    07:00 -4°C° 0 mm 4 m/S 762 mmHg 85%
    08:00 -4°C° 0 mm 4 m/S 761 mmHg 81%
    09:00 -3°C° 0 mm 4 m/S 761 mmHg 76%
    10:00 -3°C° 0 mm 4 m/S 761 mmHg 72%
    11:00 -2°C° 0 mm 4 m/S 761 mmHg 69%
    12:00 -2°C° 0 mm 4 m/S 760 mmHg 65%
    13:00 -2°C° 0 mm 4 m/S 760 mmHg 62%
    14:00 -2°C° 0 mm 4 m/S 760 mmHg 66%
    15:00 -2°C° 0 mm 3 m/S 759 mmHg 71%
    16:00 -2°C° 0 mm 3 m/S 759 mmHg 75%
    17:00 -2°C° 0 mm 3 m/S 759 mmHg 77%
    18:00 -4°C° 0 mm 3 m/S 759 mmHg 79%
    19:00 -4°C° 0 mm 4 m/S 759 mmHg 80%
    20:00 -4°C° 0 mm 3 m/S 759 mmHg 81%
    21:00 -4°C° 0 mm 3 m/S 759 mmHg 81%
    22:00 -4°C° 0 mm 3 m/S 759 mmHg 81%
    23:00 -4°C° 0 mm 3 m/S 759 mmHg 82%

    17 Dezember, Montag

    Zeit Temperatur Niederschläge Wind Luftdruck Luftfeuchtigkeit
    00:00 -4°C° 0 mm 3 m/S 759 mmHg 82%
    01:00 -3°C° 0 mm 2 m/S 759 mmHg 83%
    02:00 -3°C° 0 mm 2 m/S 759 mmHg 83%
    03:00 -3°C° 0 mm 2 m/S 759 mmHg 84%
    04:00 -3°C° 0 mm 2 m/S 759 mmHg 84%
    05:00 -3°C° 0 mm 2 m/S 759 mmHg 83%
    06:00 -3°C° 0 mm 2 m/S 759 mmHg 82%
    07:00 -3°C° 0 mm 2 m/S 759 mmHg 82%
    08:00 -3°C° 0 mm 2 m/S 760 mmHg 80%
    09:00 -2°C° 0 mm 2 m/S 760 mmHg 78%
    10:00 0°C° 0 mm 1 m/S 760 mmHg 76%
    11:00 0°C° 0 mm 1 m/S 760 mmHg 75%
    12:00 +1°C° 0 mm 1 m/S 760 mmHg 73%
    13:00 +1°C° 0 mm 1 m/S 760 mmHg 72%
    14:00 +1°C° 0 mm 1 m/S 761 mmHg 76%
    15:00 0°C° 0 mm 1 m/S 761 mmHg 79%
    16:00 0°C° 0 mm 1 m/S 761 mmHg 83%
    17:00 0°C° 0 mm 1 m/S 761 mmHg 85%
    18:00 0°C° 0 mm 1 m/S 762 mmHg 86%
    19:00 -1°C° 0 mm 0 m/S 762 mmHg 87%
    20:00 0°C° 0 mm 1 m/S 762 mmHg 88%
    21:00 0°C° 0 mm 1 m/S 762 mmHg 90%
    22:00 0°C° 0 mm 1 m/S 763 mmHg 91%
    23:00 0°C° 0 mm 1 m/S 763 mmHg 92%

    18 Dezember, Dienstag

    Zeit Temperatur Niederschläge Wind Luftdruck Luftfeuchtigkeit
    00:00 -1°C° 0 mm 1 m/S 763 mmHg 92%
    01:00 -1°C° 0 mm 1 m/S 763 mmHg 93%
    02:00 -1°C° 0 mm 1 m/S 763 mmHg 93%
    03:00 -1°C° 0 mm 1 m/S 763 mmHg 93%
    04:00 -2°C° 0 mm 0 m/S 763 mmHg 93%
    05:00 -2°C° 0 mm 0 m/S 763 mmHg 93%
    06:00 -2°C° 0 mm 0 m/S 763 mmHg 93%
    07:00 -2°C° 0 mm 0 m/S 763 mmHg 93%
    08:00 -1°C° 0 mm 0 m/S 763 mmHg 92%
    09:00 -1°C° 0 mm 0 m/S 764 mmHg 91%
    10:00 0°C° 0 mm 1 m/S 764 mmHg 90%
    11:00 +1°C° 0 mm 1 m/S 764 mmHg 87%
    12:00 +1°C° 0 mm 1 m/S 763 mmHg 85%
    13:00 +2°C° 0 mm 1 m/S 763 mmHg 83%
    14:00 +1°C° 0 mm 1 m/S 763 mmHg 85%
    15:00 0°C° 0 mm 1 m/S 763 mmHg 88%
    16:00 0°C° 0 mm 1 m/S 763 mmHg 91%
    17:00 0°C° 0 mm 1 m/S 763 mmHg 91%
    18:00 0°C° 0 mm 1 m/S 763 mmHg 91%
    19:00 0°C° 0 mm 1 m/S 763 mmHg 91%
    20:00 -3°C° 0 mm 2 m/S 763 mmHg 92%
    21:00 -3°C° 0 mm 2 m/S 763 mmHg 92%
    22:00 -3°C° 0 mm 2 m/S 763 mmHg 92%
    23:00 -3°C° 0 mm 2 m/S 762 mmHg 92%
    Mehr zeigen